EW0868 Weather Reports


Display with metric or nautical units.
time (UTC)temp
F
wind
direction
speed
MPH
gust
MPH
rain 1hr
in
rain 24hr
in
rain mn
in
humidity
%
barometer
mb
20260504081601 56 121 0.0 0.0 0.00 0.00 0.00 83 1008.9
20260504044538 64 121 0.0 0.0 0.00 0.00 0.00 75 1008.6
20260504043032 65 121 0.0 0.0 0.00 0.00 0.00 74 1008.7
20260504041528 66 117 0.0 0.0 0.00 0.00 0.00 74 1008.6
20260504040036 67 117 0.0 0.0 0.00 0.00 0.00 72 1008.5
20260504034533 68 243 0.0 0.0 0.00 0.00 0.00 70 1008.2
20260504033027 70 197 0.0 1.0 0.00 0.00 0.00 67 1008.2
20260504031540 71 207 0.0 0.0 0.00 0.00 0.00 66 1008.0
20260504030033 71 205 0.0 4.0 0.00 0.00 0.00 64 1008.1
20260504024546 72 205 0.0 0.0 0.00 0.00 0.00 63 1008.1
20260504023043 72 209 0.0 4.0 0.00 0.00 0.00 64 1008.1
20260504021535 73 213 0.0 4.0 0.00 0.00 0.00 62 1008.1
20260504020049 74 207 0.0 3.0 0.00 0.00 0.00 61 1008.1
20260504014542 74 211 0.0 3.0 0.00 0.00 0.00 60 1008.2
20260504013035 75 360 0.0 2.0 0.00 0.00 0.00 60 1008.3
20260504011534 76 203 0.0 4.0 0.00 0.00 0.00 59 1008.4
20260504010042 77 228 0.0 3.0 0.00 0.00 0.00 60 1008.5
20260504004540 76 204 0.0 4.0 0.00 0.00 0.00 61 1008.6
20260504003034 76 217 0.0 1.0 0.00 0.00 0.00 61 1008.6
20260504001530 76 242 1.0 3.0 0.00 0.00 0.00 62 1008.7
20260504000038 78 360 2.0 7.0 0.00 0.00 0.00 58 1008.8
20260503234532 78 210 1.0 4.0 0.00 0.00 0.00 57 1008.9
20260503233027 80 219 1.0 4.0 0.00 0.00 0.00 55 1009.0
20260503231539 81 245 0.0 3.0 0.00 0.00 0.00 56 1009.1
20260503230032 81 360 2.0 5.0 0.00 0.00 0.00 55 1009.4
20260503224546 81 275 3.0 7.0 0.00 0.00 0.00 53 1009.5
20260503223043 83 242 3.0 5.0 0.00 0.00 0.00 52 1009.6
20260503221537 86 211 5.0 8.0 0.00 0.00 0.00 46 1009.7
20260503220049 90 202 3.0 4.0 0.00 0.00 0.00 42 1009.9
20260503214542 0 360 2.0 4.0 0.00 0.00 0.00 39 1010.0
20260503213035 0 242 0.0 2.0 0.00 0.00 0.00 1010.1
20260503211533 0 67 2.0 5.0 0.00 0.00 0.00 1010.1
20260503210042 0 105 2.0 6.0 0.00 0.00 0.00 1010.4
20260503204537 0 97 2.0 7.0 0.00 0.00 0.00 1010.6
20260503203032 0 62 2.0 4.0 0.00 0.00 0.00 1010.7
20260503201527 0 30 2.0 6.0 0.00 0.00 0.00 1010.9
20260503200034 0 344 2.0 9.0 0.00 0.00 0.00 1011.1
20260503194528 0 106 3.0 7.0 0.00 0.00 0.00 1011.2
20260503193027 0 38 1.0 5.0 0.00 0.00 0.00 1011.4
20260503191540 0 63 0.0 4.0 0.00 0.00 0.00 1011.5
20260503190033 0 216 1.0 4.0 0.00 0.00 0.00 1011.7
20260503184528 0 21 0.0 0.0 0.00 0.00 0.00 1011.8
20260503183101 0 114 1.0 7.0 0.00 0.00 0.00 1012.1
20260503181557 0 118 1.0 9.0 0.00 0.00 0.00 1012.2
20260503180044 0 93 3.0 5.0 0.00 0.00 0.00 1012.3
20260503174540 0 82 2.0 8.0 0.00 0.00 0.00 1012.4
20260503173032 0 80 1.0 9.0 0.00 0.00 0.00 1012.4
20260503171529 0 26 0.0 2.0 0.00 0.00 0.00 1012.5